Date,TemperatureHighF,TemperatureAvgF,TemperatureLowF,DewpointHighF,DewpointAvgF,DewpointLowF,HumidityHigh,HumidityAvg,HumidityLow,PressureMaxIn,PressureMinIn,WindSpeedMaxMPH,WindSpeedAvgMPH,GustSpeedMaxMPH,PrecipitationSumIn
2013-1-1,59.2,54.3,48.6,48.2,38.2,29.9,77,55,36,30.12,29.91,11,2,11,0.00
2013-1-2,55.0,47.1,40.1,51.8,40.0,26.4,98,77,56,30.15,29.85,14,4,14,0.24
2013-1-3,41.9,39.6,32.4,34.3,25.8,20.9,78,58,51,30.21,30.09,8,2,8,0.08
2013-1-4,52.3,36.9,27.3,33.0,22.0,17.5,87,57,36,30.27,30.15,10,2,10,0.08
2013-1-5,51.8,38.7,26.6,27.8,20.7,13.0,73,50,36,30.33,30.21,9,2,9,0.08
2013-1-6,48.4,44.7,35.8,42.0,33.4,25.7,84,65,42,30.24,30.06,8,1,8,0.08
2013-1-7,53.6,43.9,36.3,41.7,27.4,22.7,83,54,36,30.42,30.09,14,3,14,0.08
2013-1-8,63.1,50.6,37.6,43.1,33.1,20.3,84,52,35,30.39,30.30,10,2,10,0.08
2013-1-9,70.9,56.1,43.3,52.8,44.0,38.8,95,68,35,30.39,30.30,6,1,6,0.00
2013-1-10,63.5,54.9,47.3,53.6,40.0,24.2,96,62,34,30.47,30.36,13,3,13,0.00
2013-1-11,68.4,58.7,47.7,60.4,46.7,26.8,98,67,41,30.39,30.12,13,3,13,0.35
2013-1-12,71.8,60.9,54.1,63.1,54.7,47.6,98,83,43,30.15,30.09,6,0,6,0.00
2013-1-13,70.9,60.0,53.4,66.0,54.4,45.8,98,84,42,30.15,30.09,7,1,7,0.00
2013-1-14,72.3,63.2,57.6,64.7,55.1,47.1,96,77,42,30.18,30.09,9,1,9,0.00
2013-1-15,65.7,58.7,54.1,60.5,54.5,44.2,98,87,47,30.18,30.06,8,2,8,0.04
2013-1-16,69.3,61.1,54.7,64.5,54.5,45.8,98,82,44,30.06,29.94,10,1,10,0.00
2013-1-17,71.8,56.6,41.4,68.0,52.0,36.9,98,86,44,29.97,29.80,17,3,17,0.31
2013-1-18,48.7,39.7,30.9,37.5,24.1,14.6,85,56,37,30.50,29.91,17,4,17,0.00
2013-1-19,60.4,41.3,27.1,33.5,25.4,13.8,80,55,35,30.47,30.15,8,2,8,0.00
2013-1-20,65.8,50.6,37.9,45.9,35.8,27.3,90,61,33,30.15,29.94,12,1,12,0.00
2013-1-21,62.8,50.2,34.0,35.9,29.3,20.3,68,45,35,30.03,29.85,8,2,9,0.00
2013-1-22,52.5,38.7,23.9,27.0,15.9,4.0,42,39,37,30.24,29.88,15,3,232,0.00
2013-1-23,42.1,31.5,21.9,18.9,10.5,2.9,44,41,38,30.33,30.09,10,2,13,0.00
2013-1-24,48.6,36.7,24.8,25.6,14.9,5.0,43,40,38,30.45,29.94,27,7,27,0.00
2013-1-25,38.7,30.2,19.6,29.7,14.3,0.7,89,53,40,30.45,30.06,8,2,8,0.20
2013-1-26,41.4,33.5,28.2,29.7,23.4,19.5,89,68,44,30.33,30.06,12,3,12,0.00
2013-1-27,43.2,33.7,27.1,28.5,19.1,11.8,88,57,38,30.53,30.33,17,3,17,0.00
2013-1-28,56.8,42.4,28.0,55.1,30.4,14.4,94,63,47,30.47,30.24,8,2,8,0.00
2013-1-29,70.5,59.0,49.5,60.8,49.9,40.9,98,76,36,30.24,30.09,13,2,232,0.04
2013-1-30,71.2,64.3,56.3,64.5,53.4,46.2,98,70,41,30.12,29.65,23,6,23,0.00
2013-1-31,66.9,53.4,41.7,58.6,31.2,18.6,82,44,35,30.03,29.53,25,6,25,0.16
2013-2-1,53.2,41.7,24.3,26.8,18.2,4.5,42,38,36,30.36,29.97,24,4,24,0.00
2013-2-2,43.7,31.1,18.1,27.5,11.6,-0.1,61,44,38,30.36,30.00,8,2,8,0.00
2013-2-3,53.4,42.6,31.3,32.1,23.3,14.7,70,47,36,30.00,29.83,15,3,15,0.00
2013-2-4,49.1,38.6,25.5,24.0,18.0,11.4,59,44,37,30.12,29.94,10,2,10,0.00
2013-2-5,60.1,50.9,37.6,38.6,30.2,20.2,66,46,35,30.03,29.88,10,2,10,0.00
2013-2-6,66.0,49.5,37.6,50.1,34.0,28.6,91,59,33,30.24,29.94,10,2,10,0.00
2013-2-7,60.4,51.5,44.6,53.4,41.4,33.3,98,71,38,30.24,29.85,14,5,15,1.89
2013-2-8,60.3,51.9,45.5,59.7,40.4,28.1,98,68,43,29.97,29.47,21,6,21,0.91
2013-2-9,54.0,42.0,28.0,28.1,19.2,10.9,54,40,36,30.36,29.97,16,4,16,0.00
2013-2-10,54.0,41.7,26.2,36.7,24.7,13.2,66,52,36,30.45,30.30,10,2,10,0.00
2013-2-11,61.2,58.5,47.8,60.2,53.2,36.7,98,84,53,30.30,29.94,15,4,15,0.20
2013-2-12,64.9,57.3,51.1,59.5,38.7,30.3,96,51,33,30.06,29.94,10,2,10,0.04
2013-2-13,56.1,51.9,47.3,55.3,49.8,39.9,98,93,65,30.00,29.65,15,3,15,0.35
2013-2-14,52.2,45.5,37.2,40.3,27.5,23.6,85,51,37,30.09,29.80,11,2,11,0.20
2013-2-15,57.2,45.4,33.8,44.9,29.6,24.8,97,58,35,30.09,29.97,10,2,10,0.20
2013-2-16,51.4,40.6,33.1,38.8,30.8,27.2,94,71,40,29.97,29.68,13,4,13,0.20
2013-2-17,37.9,31.9,25.0,32.2,17.1,5.8,94,58,39,30.27,29.83,23,5,23,0.20
2013-2-18,47.3,36.8,20.1,22.9,15.6,3.9,53,42,37,30.45,30.27,10,2,10,0.20
2013-2-19,59.2,51.5,37.6,52.7,40.7,21.8,94,68,42,30.33,29.94,15,3,15,0.24
2013-2-20,57.6,45.5,33.4,35.6,25.9,18.9,75,47,35,30.12,29.97,13,3,232,0.20
2013-2-21,57.6,43.2,30.0,30.1,20.7,10.1,62,41,35,30.27,30.09,10,3,10,0.20
2013-2-22,50.2,43.7,37.9,46.5,26.6,16.4,90,52,39,30.33,30.09,11,3,11,0.20
2013-2-23,61.2,50.6,46.6,60.6,49.7,46.0,98,97,85,30.09,29.85,11,2,11,0.71
2013-2-24,63.0,50.6,41.0,55.0,42.5,34.0,98,78,35,30.03,29.80,12,2,12,0.71
2013-2-25,45.1,41.7,36.7,43.3,22.9,17.7,98,49,39,30.18,30.00,15,4,231,0.71
2013-2-26,65.7,55.2,40.3,65.1,50.6,22.7,98,86,49,30.12,29.65,27,6,27,0.75
2013-2-27,60.6,52.7,48.0,57.0,36.1,26.2,98,57,35,29.85,29.65,18,4,18,0.71
2013-2-28,58.1,49.1,37.9,33.1,27.1,17.5,58,43,35,29.88,29.74,13,3,13,0.71
2013-3-1,55.0,43.7,31.1,28.6,21.6,15.7,60,42,36,29.94,29.83,13,2,13,0.00
2013-3-2,53.2,41.6,30.0,29.7,21.1,14.1,70,45,36,29.94,29.83,11,2,11,0.00
2013-3-3,49.5,38.5,28.9,24.3,17.3,9.8,53,42,37,30.00,29.85,15,3,15,0.00
2013-3-4,49.5,36.2,27.7,24.1,14.3,7.6,44,40,37,30.18,29.97,15,4,15,0.00
2013-3-5,60.1,49.5,29.7,47.5,27.2,10.4,69,42,35,30.18,29.74,12,3,12,0.04
2013-3-6,58.3,46.9,40.8,52.8,25.8,20.2,83,44,37,29.97,29.59,28,10,28,0.12
2013-3-7,56.3,44.5,36.3,28.9,21.3,16.0,46,39,35,30.24,29.97,20,5,20,0.00
2013-3-8,55.0,45.3,35.1,28.6,21.3,14.2,42,38,36,30.30,30.15,22,6,22,0.00
2013-3-9,62.2,48.5,34.5,33.5,24.6,15.9,55,39,34,30.39,30.30,16,4,16,0.00
2013-3-10,60.1,45.3,28.2,38.2,27.6,16.1,82,52,35,30.39,30.33,10,2,232,0.00
2013-3-11,66.9,56.6,43.9,49.4,40.2,36.1,92,58,35,30.36,30.12,13,4,13,0.00
2013-3-12,63.5,60.3,57.4,62.6,54.9,42.4,98,84,51,30.12,29.91,13,4,13,0.79
2013-3-13,61.5,52.6,44.2,55.5,28.4,21.7,91,40,34,30.18,30.00,15,4,15,0.00
2013-3-14,53.1,42.2,33.3,26.8,18.9,12.1,45,39,36,30.33,30.18,14,4,14,0.00
2013-3-15,56.7,46.5,27.7,33.4,23.6,11.1,53,41,35,30.30,30.09,13,3,13,0.00
2013-3-16,68.2,59.0,53.1,38.5,36.1,32.7,53,43,33,30.09,29.88,12,3,12,0.00
2013-3-17,62.2,53.9,47.1,41.2,34.6,27.4,66,48,36,30.27,30.00,15,4,17,0.00
2013-3-18,65.8,55.1,47.3,50.8,39.5,30.1,88,57,36,30.27,30.03,15,4,15,0.00
2013-3-19,69.4,58.1,48.0,57.9,44.4,34.8,98,66,33,30.12,29.88,14,3,14,0.35
2013-3-20,58.1,49.1,37.6,34.8,24.2,16.3,60,37,35,30.24,29.94,12,3,12,0.00
2013-3-21,54.9,41.8,28.9,33.2,21.7,12.4,83,46,36,30.06,29.83,17,4,17,0.00
2013-3-22,49.3,37.9,24.1,24.0,15.7,4.8,44,40,37,30.21,30.06,12,2,12,0.00
2013-3-23,57.4,45.5,35.1,30.4,24.4,15.9,64,44,35,30.18,30.06,7,1,7,0.00
2013-3-24,57.0,47.9,38.8,53.4,39.9,23.8,97,75,38,30.09,29.59,22,5,22,0.51
2013-3-25,51.4,44.8,38.5,42.0,29.6,16.4,91,59,37,29.94,29.65,20,4,20,0.00
2013-3-26,50.0,43.1,34.3,24.6,19.9,13.6,46,39,37,30.21,29.94,15,4,15,0.00
2013-3-27,56.5,45.4,34.5,29.2,21.9,15.4,48,39,35,30.36,30.21,16,5,16,0.00
2013-3-28,57.7,44.3,30.4,30.3,20.6,10.7,46,39,35,30.42,30.30,15,4,15,0.00
2013-3-29,61.0,46.7,29.1,32.8,23.3,11.9,53,40,35,30.47,30.36,13,2,13,0.00
2013-3-30,64.2,53.2,41.9,35.3,30.9,25.6,63,43,34,30.42,25.42,13,2,13,0.00
2013-3-31,65.7,56.8,44.1,50.1,41.0,33.0,89,57,36,30.33,30.06,17,3,17,0.04
2013-4-1,68.9,59.1,52.0,57.5,51.4,42.6,91,77,39,30.12,30.00,9,2,9,0.04
2013-4-2,60.6,51.0,41.7,49.7,30.9,25.4,93,48,35,30.33,30.12,13,4,15,0.00
2013-4-3,55.6,48.1,40.3,42.1,28.2,22.1,83,48,35,30.47,30.30,12,3,12,0.00
2013-4-4,61.3,49.4,41.7,60.8,34.3,21.7,98,59,37,30.50,30.00,17,5,17,1.42
2013-4-5,61.9,50.7,40.3,61.3,40.3,29.8,98,71,39,30.21,29.94,15,4,15,0.08
2013-4-6,61.5,50.1,38.5,44.7,31.4,24.9,95,52,34,30.50,30.21,17,4,17,0.00
2013-4-7,66.7,56.0,39.2,45.7,37.2,27.1,93,52,35,30.50,30.39,10,4,10,0.00
2013-4-8,74.3,64.6,54.7,54.1,44.0,40.5,78,49,33,30.42,30.33,14,3,14,0.00
2013-4-9,75.6,66.4,57.9,58.9,49.6,45.5,86,57,35,30.45,30.36,14,2,14,0.00
2013-4-10,76.8,68.2,60.3,68.2,50.5,43.3,98,58,32,30.39,30.27,16,3,16,0.00
2013-4-11,77.9,69.0,59.4,65.7,53.6,47.9,96,62,35,30.27,30.15,13,3,13,0.00
2013-4-12,73.0,67.0,64.0,69.9,63.1,54.8,98,88,53,30.09,29.74,13,4,13,1.10
2013-4-13,67.5,59.6,48.6,62.8,42.4,33.7,97,56,34,30.00,29.74,13,4,13,0.00
2013-4-14,73.0,61.8,44.8,59.7,41.5,35.8,94,51,32,30.12,30.00,10,2,10,0.00
2013-4-15,68.5,64.6,59.5,58.3,49.0,39.9,81,58,39,30.21,29.97,23,4,23,0.47
2013-4-16,75.2,66.0,59.4,64.2,51.8,41.3,98,65,33,30.27,30.15,12,3,12,0.00
2013-4-17,74.8,65.4,52.9,62.5,47.7,44.0,94,56,34,30.24,30.18,9,2,9,0.00
2013-4-18,75.4,67.2,56.1,64.0,49.9,43.7,98,58,34,30.21,30.09,12,4,12,0.00
2013-4-19,77.9,71.2,66.4,68.1,58.5,50.4,91,66,43,30.12,29.91,24,7,24,0.04
2013-4-20,70.7,57.8,50.5,65.3,42.8,30.7,98,61,37,30.24,29.88,15,3,17,1.42
2013-4-21,62.1,52.7,44.2,43.3,31.2,23.9,83,46,34,30.45,30.21,20,5,20,0.00
2013-4-22,56.8,52.5,47.1,50.1,40.0,25.8,92,64,43,30.39,30.12,22,9,22,0.08
2013-4-23,65.8,58.3,50.5,51.6,41.1,34.7,96,58,34,30.18,30.06,17,5,17,0.00
2013-4-24,72.1,58.8,43.9,55.2,43.8,38.6,95,61,34,30.18,30.06,13,3,13,0.00
2013-4-25,69.8,62.6,50.4,62.7,45.5,34.4,90,56,35,30.27,30.06,14,3,14,0.04
2013-4-26,69.1,57.0,41.9,47.5,35.3,27.1,84,47,33,30.39,30.24,17,4,17,0.00
2013-4-27,70.0,61.1,49.5,46.7,37.8,30.2,72,44,32,30.36,30.27,15,4,15,0.00
2013-4-28,71.1,63.5,52.5,45.0,36.8,29.5,49,37,32,30.27,30.12,10,4,10,0.00
2013-4-29,66.7,64.1,61.2,63.0,53.4,41.6,97,70,42,30.12,29.97,13,3,13,0.71
2013-4-30,73.4,66.8,61.7,63.7,51.1,43.2,98,60,36,30.12,29.97,11,3,11,0.00
2013-5-1,72.9,65.1,59.2,61.0,50.3,41.7,85,61,34,30.24,30.09,15,4,15,0.04
2013-5-2,69.8,63.4,57.9,60.8,48.7,39.2,94,62,34,30.27,30.18,16,6,16,0.04
2013-5-3,69.3,61.3,55.8,53.1,40.5,31.4,84,49,33,30.18,30.12,23,7,23,0.00
2013-5-4,65.7,58.6,53.8,54.6,45.6,36.7,95,65,36,30.12,30.03,18,6,18,0.08
2013-5-5,71.8,63.1,55.4,57.6,49.6,42.9,87,64,36,30.03,29.94,15,5,15,0.00
2013-5-6,69.4,65.4,61.5,64.9,51.8,44.8,98,63,43,29.97,29.88,15,5,15,0.59
2013-5-7,71.1,62.6,53.6,63.2,46.5,38.6,98,59,34,29.97,29.85,12,3,12,0.00
2013-5-8,74.5,65.1,51.3,58.9,45.2,40.2,87,51,32,30.03,29.94,17,3,17,0.00
2013-5-9,78.4,68.3,58.3,57.2,48.1,44.1,77,50,32,30.12,29.97,11,2,11,0.00
2013-5-10,79.3,70.4,57.6,68.3,52.9,44.9,94,58,32,30.12,30.06,11,3,11,0.00
2013-5-11,80.1,72.7,68.5,63.7,55.2,47.0,83,56,39,30.06,29.88,17,4,17,0.00
2013-5-12,81.9,73.0,64.0,63.2,49.1,35.1,82,46,30,29.97,29.80,14,4,14,0.00
2013-5-13,71.6,62.2,47.1,40.2,33.9,24.4,42,35,32,30.12,29.97,18,5,18,0.00
2013-5-14,72.5,60.9,40.8,41.0,33.9,23.5,62,37,32,30.21,30.12,11,3,11,0.00
2013-5-15,76.1,69.5,61.7,49.7,45.1,35.1,54,42,33,30.15,29.97,16,4,16,0.00
2013-5-16,78.6,68.9,65.1,58.4,52.6,48.8,75,57,37,29.97,29.94,8,2,8,0.00
2013-5-19,81.7,75.3,67.3,69.0,53.6,49.5,96,48,33,30.18,30.12,10,4,10,0.00
2013-5-20,81.7,75.2,69.1,61.3,54.3,48.7,75,50,33,30.18,30.09,17,4,17,0.00
2013-5-21,82.2,74.9,69.8,66.2,58.4,50.1,81,59,33,30.09,30.03,13,4,13,0.00
2013-5-22,84.0,76.1,71.1,68.1,58.4,50.3,85,57,34,30.09,30.00,15,4,15,0.00
2013-5-23,79.9,73.2,70.0,69.2,63.4,53.6,90,73,42,30.03,29.85,10,2,10,0.31
2013-5-24,80.6,71.8,58.3,68.4,49.8,30.8,93,51,30,30.12,29.77,15,5,15,0.00
2013-5-25,74.3,59.9,46.2,41.7,33.3,26.0,51,37,31,30.21,30.12,13,3,13,0.00
2013-5-26,76.3,62.7,48.0,49.2,39.3,32.5,83,45,31,30.24,30.12,10,2,10,0.00
2013-5-27,77.2,65.7,45.7,60.4,42.4,35.6,95,46,31,30.27,30.21,10,3,10,0.00
2013-5-28,81.0,71.6,55.4,64.0,49.7,44.1,92,49,32,30.30,30.21,12,3,12,0.00
2013-5-29,83.8,75.4,64.0,69.5,52.9,47.2,93,49,30,30.30,30.21,11,3,11,0.00
2013-5-30,85.5,74.7,60.3,70.5,55.4,49.6,97,54,32,30.30,30.24,11,3,11,0.00
2013-5-31,84.7,76.3,64.4,73.4,57.9,50.4,98,56,33,30.27,30.18,11,3,11,0.00
2013-6-1,84.9,76.5,68.0,72.3,58.1,49.2,91,57,31,30.21,30.12,14,3,14,0.00
2013-6-2,84.6,78.3,71.6,67.7,57.4,51.2,80,51,32,30.12,30.00,14,4,14,0.00
2013-6-3,82.8,73.5,68.7,73.0,65.7,57.4,94,77,46,30.03,29.88,17,3,17,0.47
2013-6-4,81.7,73.7,68.0,72.4,59.2,48.0,98,65,36,30.12,29.94,13,3,13,0.00
2013-6-5,80.8,72.7,65.1,58.6,48.4,43.2,75,44,30,30.15,30.06,17,4,17,0.00
2013-6-6,79.5,74.3,68.4,71.0,59.5,48.3,91,62,41,30.09,29.91,15,4,15,0.08
2013-6-7,84.0,77.1,73.6,75.2,63.4,52.5,98,66,40,29.91,29.65,25,7,25,0.63
2013-6-8,84.7,78.5,73.0,72.8,65.7,57.5,89,67,40,30.15,29.91,15,4,15,0.00
2013-6-9,86.2,78.4,74.1,74.9,64.8,56.3,93,66,38,30.21,30.12,11,3,11,0.00
2013-6-10,85.3,78.3,72.3,72.8,63.4,55.8,88,63,38,30.18,30.03,16,4,17,0.04
2013-6-11,84.4,78.5,73.8,73.5,60.2,51.5,91,56,36,30.06,29.91,13,3,232,0.00
2013-6-12,90.7,81.3,68.5,73.5,60.0,50.9,95,54,28,30.00,29.91,11,2,11,0.00
2013-6-13,90.3,81.4,69.6,78.7,64.2,46.2,95,60,30,29.94,29.68,17,4,17,0.47
2013-6-14,80.1,72.2,62.1,67.2,51.3,39.5,94,53,30,30.03,29.71,14,4,14,0.16
2013-6-15,85.6,71.8,54.7,64.6,46.7,41.4,89,44,29,30.15,30.03,11,2,11,0.00
2013-6-16,84.6,77.5,68.7,56.2,49.0,46.2,59,37,30,30.18,30.09,14,3,14,0.00
2013-6-17,85.5,78.8,73.4,60.3,53.8,46.3,57,43,32,30.12,30.03,15,4,15,0.00
2013-6-18,84.9,78.4,73.0,74.0,64.6,53.6,93,65,35,30.06,29.85,13,3,13,0.35
2013-6-19,77.0,72.3,68.5,71.1,59.7,49.7,97,67,40,30.12,29.88,10,3,10,0.55
2013-6-20,82.0,74.2,65.5,64.3,49.9,43.3,90,46,30,30.21,30.09,15,4,15,0.00
2013-6-21,83.1,73.3,65.5,69.6,60.1,48.7,92,66,33,30.21,30.15,13,4,13,0.35
2013-6-22,78.1,74.4,70.3,72.4,66.0,57.8,98,76,53,30.21,30.15,14,5,14,0.55
2013-6-23,85.5,78.1,71.6,76.3,64.6,55.0,93,66,36,30.24,30.18,10,3,10,0.00
2013-6-24,84.6,78.1,73.9,75.7,66.2,52.3,88,69,35,30.24,30.12,11,2,11,0.28
2013-6-25,87.1,78.8,71.2,72.7,64.1,52.2,87,63,37,30.18,30.03,11,2,11,0.08
2013-6-26,87.4,80.6,75.0,75.2,63.5,53.9,92,59,33,30.06,29.97,15,3,15,0.00
2013-6-27,87.4,79.8,72.3,73.7,62.6,54.2,84,57,36,29.97,29.80,13,4,13,0.00
2013-6-28,87.1,81.1,75.9,73.2,67.2,58.8,83,64,41,29.83,29.68,14,4,14,0.04
2013-6-29,82.4,78.8,76.3,73.7,65.7,58.9,85,65,47,29.83,29.65,17,5,17,0.00
2013-6-30,82.4,76.6,72.1,75.8,68.9,60.0,96,79,49,29.94,29.77,13,4,13,0.87
2013-7-1,79.3,75.9,73.2,73.8,70.5,60.0,91,84,55,30.09,29.88,13,4,13,0.55
2013-7-2,88.0,80.7,72.1,77.4,64.8,57.9,96,62,38,30.24,30.09,13,5,13,0.24
2013-7-3,88.5,80.6,73.9,78.6,65.7,57.1,94,64,36,30.30,30.21,11,4,12,0.24
2013-7-4,87.6,81.6,75.6,72.1,61.5,53.9,80,53,33,30.30,30.24,11,4,11,0.00
2013-7-5,88.9,81.5,75.6,75.0,61.9,54.3,87,54,33,30.30,30.21,9,3,9,0.00
2013-7-6,88.2,81.2,75.0,69.5,59.2,52.8,76,49,31,30.27,30.18,10,3,10,0.00
2013-7-7,87.6,80.2,69.8,72.3,56.3,51.7,84,46,31,30.21,30.12,11,3,11,0.00
2013-7-8,87.4,80.2,73.6,68.8,57.8,51.1,76,48,30,30.21,30.15,11,2,13,0.00
2013-7-9,87.8,80.2,75.0,71.4,61.6,51.6,81,55,29,30.24,30.15,13,3,13,0.00
2013-7-10,88.9,81.8,75.4,73.6,60.4,53.9,83,50,32,30.18,30.06,14,4,14,0.00
2013-7-11,89.2,80.8,74.8,72.5,62.3,53.4,85,56,32,30.06,29.94,17,4,17,0.04
2013-7-12,78.6,75.0,72.3,75.3,67.6,57.9,98,78,53,30.03,29.91,14,2,14,1.42
2013-7-13,86.5,78.2,72.9,77.2,65.2,53.7,98,68,33,30.24,30.00,17,5,17,0.71
2013-7-14,86.2,81.2,76.3,70.5,60.2,51.6,78,51,32,30.30,30.21,13,5,13,0.00
2013-7-15,87.8,80.0,72.7,75.9,61.7,51.3,95,58,30,30.33,30.27,12,3,13,0.00
2013-7-16,91.9,82.4,71.4,77.5,59.5,51.5,95,51,29,30.30,30.21,9,2,9,0.00
2013-7-18,81.5,80.4,79.9,63.8,59.9,56.9,58,50,43,30.12,30.09,8,1,8,0.00
2013-7-19,88.7,82.7,76.1,70.8,61.1,54.4,77,50,33,30.15,30.06,15,3,15,0.00
2013-7-20,89.6,82.5,77.4,65.7,58.4,52.5,67,45,31,30.09,30.00,17,4,17,0.00
2013-7-21,86.5,80.7,75.6,72.8,62.1,54.5,82,55,35,30.03,29.97,11,3,11,0.08
2013-7-22,88.0,80.6,74.8,74.1,65.5,56.0,89,63,35,30.00,29.88,12,2,12,0.00
2013-7-23,86.2,79.6,75.9,71.6,63.8,56.2,84,61,37,29.91,29.77,10,3,13,0.00
2013-7-24,91.0,81.7,74.1,73.0,63.1,54.2,85,56,30,29.83,29.74,11,2,11,0.00
2013-7-25,88.5,82.5,74.1,67.2,54.9,51.9,79,39,30,29.97,29.80,12,4,12,0.00
2013-7-27,84.6,80.0,77.4,62.1,56.5,50.8,59,45,32,30.00,29.97,13,4,13,0.00
2013-7-28,89.4,81.8,75.0,71.7,61.3,52.5,79,53,30,30.03,29.88,14,3,14,0.00
2013-7-29,88.5,80.6,75.6,72.8,65.1,55.5,83,61,34,30.12,30.00,13,2,13,0.00
2013-7-30,83.5,78.5,74.3,62.4,56.9,51.4,66,48,35,30.15,30.15,9,1,9,0.00
2013-7-31,85.3,79.1,72.0,74.3,55.7,48.1,96,48,30,30.15,30.03,11,3,11,0.00
2013-8-1,83.5,77.2,70.3,75.3,62.7,55.5,95,63,39,30.03,29.91,10,2,10,0.55
2013-8-2,88.7,80.8,73.9,72.5,63.4,54.5,83,57,32,30.06,29.91,15,3,15,0.00
2013-8-3,89.8,82.4,77.7,74.8,64.0,54.1,84,56,31,30.06,29.94,11,3,11,0.00
2013-8-4,88.2,78.6,66.4,74.2,58.8,48.7,89,54,31,30.03,29.88,16,2,16,0.00
2013-8-5,82.9,68.4,62.1,68.8,56.4,44.9,93,71,29,30.09,30.00,8,1,10,0.00
2013-8-11,82.2,79.6,78.4,72.8,67.3,61.0,80,67,51,30.09,30.03,6,1,6,0.00
2013-8-12,93.2,82.2,75.2,77.2,66.4,55.9,91,63,30,30.06,29.97,11,2,11,0.04
2013-8-13,90.7,81.8,73.4,78.8,68.0,56.0,93,66,32,29.97,29.83,14,2,14,0.04
2013-8-14,79.0,73.5,67.6,74.1,58.3,46.0,96,62,37,30.06,29.80,16,3,16,0.31
2013-8-15,68.9,66.5,64.2,66.7,59.4,45.7,98,79,45,30.12,30.03,11,2,11,1.06
2013-8-16,73.9,70.4,66.4,68.6,61.1,52.4,98,75,48,30.15,30.03,11,3,11,0.43
2013-8-17,78.4,73.4,67.6,74.8,69.6,57.0,98,89,56,30.15,30.06,13,2,13,0.87
2013-8-18,89.1,79.2,71.8,78.6,64.0,54.2,98,65,31,30.21,30.12,8,1,8,0.39
2013-8-19,84.2,75.0,72.5,76.9,69.7,55.4,98,85,41,30.18,30.09,11,2,11,0.87
2013-8-20,84.9,76.9,72.0,75.5,64.1,54.7,98,68,37,30.18,30.09,12,2,232,0.39
2013-8-21,89.1,78.9,71.1,76.0,62.8,53.0,98,62,31,30.24,30.12,10,2,10,0.39
2013-8-22,86.7,79.3,69.1,74.8,60.4,54.7,92,54,35,30.15,30.03,8,2,8,0.39
2013-8-23,90.3,79.2,70.7,74.9,62.3,53.2,91,60,29,30.06,29.91,17,2,17,0.39
2013-8-24,82.4,73.6,67.3,68.4,53.9,44.2,94,55,30,30.24,30.00,16,4,16,0.39
2013-8-25,81.0,71.4,62.4,56.6,48.0,43.3,72,45,30,30.33,30.24,15,4,15,0.39
2013-8-26,84.6,72.1,62.1,61.9,50.1,43.8,87,49,29,30.30,30.12,10,2,10,0.39
2013-8-27,85.3,75.3,61.9,68.1,51.2,45.4,91,48,29,30.15,30.00,11,2,11,0.39
2013-8-28,86.5,78.2,72.7,69.3,56.3,49.2,74,48,32,30.03,29.91,9,2,9,0.39
2013-8-29,89.2,79.7,72.0,66.1,56.9,53.4,67,47,30,30.00,29.85,15,3,15,0.39
2013-8-30,84.7,75.6,65.7,68.7,57.4,49.1,93,57,31,30.03,29.97,13,4,13,0.39
2013-8-31,87.3,77.5,66.7,75.3,59.7,51.7,95,59,31,30.00,29.91,10,2,10,0.39
2013-9-1,88.3,80.8,75.2,75.3,66.1,55.6,91,64,33,29.97,29.85,14,3,14,0.39
2013-9-2,87.3,79.8,72.7,80.1,68.5,57.2,98,70,39,29.91,29.83,13,3,13,0.47
2013-9-3,86.9,78.5,71.1,75.0,64.7,52.4,92,66,32,29.94,29.83,14,2,14,0.39
2013-9-4,85.1,76.3,67.8,73.4,61.2,50.5,98,64,34,30.09,29.91,10,2,10,0.39
2013-9-5,88.9,75.9,68.4,77.7,64.3,52.7,97,72,31,30.09,30.03,12,1,12,1.22
2013-9-6,85.5,74.1,66.6,74.4,58.7,49.5,98,64,30,30.12,30.03,15,3,15,0.39
2013-9-7,81.9,71.6,62.6,61.1,48.0,41.3,81,46,30,30.09,30.00,12,2,12,0.39
2013-9-8,85.1,72.9,59.2,69.1,52.7,46.9,91,53,30,30.00,29.91,10,1,10,0.39
2013-9-9,85.3,75.6,67.1,72.2,56.6,48.0,93,56,30,30.15,30.00,13,2,13,0.39
2013-9-10,86.9,76.5,68.0,71.9,57.5,48.3,92,57,29,30.24,30.15,12,2,12,0.39
2013-9-11,86.4,74.6,65.7,72.0,56.8,48.0,96,59,29,30.21,30.12,10,2,10,0.39
2013-9-12,88.0,77.1,65.5,75.1,57.1,49.8,94,55,29,30.12,29.85,11,2,11,0.00
2013-9-13,88.3,78.8,70.3,58.4,53.3,48.7,65,42,28,29.85,29.74,9,2,9,0.00
2013-9-14,79.2,71.6,65.8,52.6,47.2,41.7,62,43,31,30.12,29.83,15,4,15,0.00
2013-9-15,82.2,71.3,62.1,62.3,50.3,44.1,91,51,30,30.21,30.12,10,2,10,0.00
2013-9-16,88.2,73.1,63.9,75.4,59.1,48.8,94,65,29,30.15,30.06,12,1,12,1.06
2013-9-17,76.8,69.1,59.0,61.1,45.8,36.7,78,45,32,30.27,30.12,13,5,13,0.00
2013-9-18,77.0,66.0,55.9,50.6,42.5,38.3,75,44,31,30.27,30.15,11,4,11,0.00
2013-9-19,79.9,65.7,56.5,57.9,44.8,38.4,83,50,30,30.18,30.09,11,2,11,0.00
2013-9-20,80.1,69.8,60.1,63.1,50.3,43.5,89,54,31,30.09,29.97,6,1,6,0.00
2013-9-21,79.9,71.5,64.8,64.6,57.0,48.1,80,62,34,29.97,29.77,10,1,10,0.00
2013-9-22,78.1,72.0,67.6,73.9,62.5,50.6,95,73,49,29.85,29.68,16,4,16,0.75
2013-9-23,74.1,66.5,56.8,53.3,42.8,36.5,73,44,32,30.09,29.85,15,3,15,0.00
2013-9-24,75.4,63.2,50.4,56.1,42.6,37.8,86,50,31,30.09,29.97,11,2,232,0.00
2013-9-25,73.2,64.2,53.8,56.7,44.2,38.8,87,52,33,29.97,29.85,10,2,10,0.00
2013-9-26,77.9,67.4,59.7,61.9,48.5,41.6,90,54,31,30.00,29.83,12,3,12,0.08
2013-9-27,75.6,66.8,60.6,60.6,46.0,36.9,88,51,31,30.12,29.97,16,5,16,0.00
2013-9-28,76.1,68.0,61.2,51.8,44.5,40.4,69,44,31,30.15,30.09,15,6,15,0.00
2013-9-29,77.5,66.4,59.4,57.6,49.7,42.2,83,58,31,30.12,30.00,13,3,13,0.00
2013-9-30,77.4,62.6,54.5,60.2,44.8,34.4,92,57,31,30.09,30.00,10,2,10,0.00
2013-10-1,80.1,63.9,50.0,62.5,43.3,37.5,88,51,30,30.12,30.03,9,2,9,0.00
2013-10-2,85.5,69.5,55.8,65.3,49.4,43.1,89,53,29,30.15,30.06,9,2,9,0.00
2013-10-3,84.9,70.7,58.6,68.6,53.2,46.3,93,59,29,30.15,30.09,9,1,232,0.00
2013-10-4,84.2,71.1,59.9,72.1,54.4,48.0,98,61,30,30.15,30.12,10,1,10,0.00
2013-10-5,86.2,72.5,61.2,73.3,54.9,46.3,95,59,29,30.15,30.09,8,1,8,0.00
2013-10-6,82.9,73.3,62.6,73.0,57.3,49.0,98,61,31,30.12,30.00,11,3,11,0.12
2013-10-7,84.9,77.3,72.5,70.5,60.7,50.7,88,60,32,30.00,29.88,13,4,13,0.28
2013-10-8,72.5,64.6,62.1,67.8,62.0,57.5,98,91,82,30.06,29.91,19,6,19,2.83
2013-10-9,65.8,63.2,60.6,65.3,62.5,60.1,98,97,93,30.06,29.88,21,7,21,1.34
2013-10-10,64.4,61.1,59.5,62.9,57.1,51.9,98,87,71,29.91,29.85,15,6,15,0.04
2013-10-11,66.6,62.7,59.4,62.2,55.9,49.7,97,80,56,29.97,29.85,11,3,11,0.00
2013-10-12,69.1,65.5,62.4,64.2,57.3,50.2,92,76,52,30.03,29.94,8,1,8,0.00
2013-10-13,78.6,69.9,65.1,66.1,59.1,47.5,94,72,34,30.12,30.03,10,3,10,0.00
2013-10-14,71.4,69.3,65.5,64.9,53.3,47.5,85,57,45,30.15,30.09,14,6,14,0.00
2013-10-15,71.4,65.7,62.8,61.9,55.5,48.2,87,71,44,30.12,30.00,12,5,12,0.00
2013-10-16,74.1,68.7,65.8,63.1,57.3,49.1,88,69,42,30.00,29.94,10,3,10,0.00
2013-10-17,77.9,68.2,58.6,66.2,53.8,44.6,92,64,32,29.97,29.91,8,1,9,0.00
2013-10-18,77.5,70.4,66.7,67.1,56.3,46.3,98,64,34,30.03,29.88,10,2,10,0.16
2013-10-19,75.4,70.0,66.4,74.6,67.8,65.8,98,93,84,29.97,29.88,6,0,6,0.47
2013-10-20,69.1,62.6,54.0,66.3,42.8,35.5,91,51,33,30.09,29.88,16,3,16,0.00
2013-10-21,69.4,59.4,48.0,53.8,42.1,36.2,90,56,33,30.12,30.00,6,1,6,0.00
2013-10-22,67.3,61.1,55.8,55.5,43.9,36.1,81,54,37,30.00,29.83,6,0,6,0.00
2013-10-23,72.7,61.8,52.3,63.4,46.2,26.9,92,62,32,29.94,29.68,15,2,15,0.31
2013-10-24,62.1,49.2,40.3,33.4,26.6,21.8,59,42,34,30.15,29.94,12,2,12,0.00
2013-10-25,58.8,47.3,34.5,36.6,26.3,17.1,69,45,35,30.33,30.15,15,3,15,0.00
2013-10-26,64.2,46.5,33.3,35.3,27.8,19.1,77,50,34,30.33,30.09,8,1,8,0.00
2013-10-27,67.1,52.9,39.9,37.1,31.2,23.6,63,45,33,30.15,30.03,8,2,8,0.00
2013-10-28,72.0,56.7,42.4,53.6,39.1,33.5,88,56,32,30.24,30.12,8,0,8,0.00
2013-10-29,72.9,59.8,48.2,57.1,41.7,37.2,89,55,32,30.30,30.21,8,2,8,0.00
2013-10-30,74.3,61.2,50.9,58.7,44.0,36.3,91,57,32,30.30,30.18,8,1,8,0.00
2013-10-31,74.5,64.9,52.7,60.5,51.2,46.1,92,63,41,30.24,30.03,15,3,15,0.00
2013-11-1,75.0,71.9,67.5,65.6,58.7,47.6,83,64,42,30.03,29.80,14,4,14,0.00
2013-11-2,71.6,64.7,57.7,67.3,56.1,41.4,95,76,42,29.88,29.71,10,2,10,1.18
2013-11-3,63.9,54.5,45.1,51.4,31.8,24.9,73,43,34,30.30,29.88,13,4,13,0.00
2013-11-4,58.6,48.5,36.3,33.1,27.6,21.6,66,45,35,30.45,30.30,21,4,21,0.00
2013-11-5,72.5,59.9,46.9,44.5,39.2,33.4,75,49,32,30.42,30.36,13,5,13,0.00
2013-11-6,68.2,62.5,55.0,63.5,52.6,42.4,98,72,45,30.36,30.12,11,4,11,0.16
2013-11-7,70.3,65.3,54.1,68.8,59.9,27.8,98,85,36,30.12,29.88,13,2,13,0.16
2013-11-8,57.9,48.0,34.7,30.5,24.6,18.8,62,40,35,30.27,30.00,16,4,16,0.00
2013-11-9,62.2,49.2,33.6,41.3,31.4,22.9,81,53,34,30.33,30.18,8,1,8,0.00
2013-11-10,70.7,57.3,47.8,43.4,35.7,28.7,71,46,32,30.18,30.06,10,2,10,0.00
2013-11-11,61.5,49.7,37.9,32.9,26.9,20.3,67,42,34,30.30,30.12,12,3,12,0.00
2013-11-12,67.3,47.6,35.2,49.5,29.9,14.4,84,54,33,30.30,29.97,24,4,24,0.00
2013-11-13,45.5,35.1,25.9,23.5,14.8,6.5,68,43,38,30.47,30.30,17,4,17,0.00
2013-11-14,59.0,38.3,23.2,31.4,17.5,6.2,58,43,35,30.47,30.33,9,1,9,0.00
2013-11-15,65.5,52.0,33.6,53.7,32.8,17.0,80,50,34,30.36,30.21,10,1,10,0.20
2013-11-16,72.7,63.8,58.5,65.8,53.4,42.8,98,73,35,30.24,30.15,8,2,8,0.04
2013-11-17,76.1,64.0,55.4,66.6,55.5,42.7,98,77,32,30.18,29.97,12,2,12,0.04
2013-11-18,78.1,67.9,59.5,74.6,58.0,31.9,98,74,35,29.97,29.80,16,2,16,0.04
2013-11-19,59.5,50.3,39.7,31.7,25.5,18.3,50,38,35,30.24,29.88,17,4,17,0.04
2013-11-20,58.1,49.7,41.7,33.7,27.1,20.8,53,42,35,30.36,30.21,14,6,14,0.04
2013-11-21,66.4,56.8,50.2,54.8,45.0,33.7,93,67,39,30.39,30.33,11,4,11,0.04
2013-11-22,72.3,62.5,53.2,62.4,48.8,40.9,98,65,34,30.36,30.09,7,1,7,0.04
2013-11-23,65.7,58.7,48.0,57.9,48.6,23.6,85,71,38,30.09,30.00,12,3,12,0.04
2013-11-24,48.0,36.3,24.4,23.6,14.1,4.7,42,40,37,30.47,30.06,20,5,20,0.04
2013-11-25,44.8,33.2,21.6,20.7,11.9,2.5,49,41,38,30.53,30.30,10,2,12,0.04
2013-11-26,68.2,56.5,36.9,67.6,48.6,20.0,98,76,36,30.33,29.65,17,5,17,1.14
2013-11-27,70.0,55.3,34.3,69.0,51.3,13.6,98,87,42,30.06,29.41,19,6,19,0.67
2013-11-28,45.9,33.9,28.0,21.7,13.1,8.4,51,42,38,30.45,30.06,18,3,18,0.04
2013-11-29,53.8,40.6,29.5,27.9,20.2,14.0,66,45,36,30.53,30.42,11,3,11,0.04
2013-11-30,57.9,46.2,34.5,31.1,25.7,14.4,62,45,36,30.53,30.30,15,5,15,0.04
2013-12-1,58.8,49.6,43.3,48.2,39.5,30.3,90,70,38,30.30,30.00,9,2,9,0.08
2013-12-2,56.1,49.5,42.3,49.7,37.3,24.0,97,67,37,30.00,29.77,8,2,8,0.04
2013-12-3,60.4,46.6,34.3,41.3,28.7,22.3,79,51,35,30.00,29.83,6,1,6,0.04
2013-12-4,65.1,58.6,50.4,64.0,54.7,36.2,97,87,58,30.12,29.97,6,0,6,0.43
2013-12-5,72.3,63.0,52.2,70.5,56.0,48.6,98,80,44,30.15,30.09,9,1,9,0.04
2013-12-6,74.1,68.0,64.8,67.5,58.8,48.6,96,75,41,30.18,30.09,10,2,10,0.04
2013-12-7,68.2,54.3,42.1,65.8,50.2,0.0,98,86,68,30.36,30.09,15,4,15,0.43
2013-12-8,45.5,43.1,41.4,41.3,37.8,30.5,93,82,61,30.36,30.21,15,5,15,0.12
2013-12-9,68.0,54.3,43.0,66.9,49.9,38.5,98,86,57,30.21,30.06,9,0,9,0.04
2013-12-10,66.4,54.7,37.9,63.8,48.0,28.2,98,79,54,30.30,29.85,17,3,17,0.16
2013-12-11,52.2,38.8,29.5,31.1,20.3,13.7,77,48,36,30.45,30.27,13,2,13,0.00
2013-12-12,47.7,37.0,26.6,25.9,17.8,7.9,73,47,37,30.36,30.21,17,3,17,0.00
2013-12-13,50.9,35.6,24.4,28.5,17.7,9.9,70,49,37,30.39,30.27,8,1,8,0.00
2013-12-14,65.1,52.9,31.6,61.8,35.4,17.1,92,53,35,30.30,29.77,14,4,14,0.94
2013-12-15,63.0,52.9,38.1,60.6,43.1,25.1,97,72,40,30.03,29.68,12,2,12,0.08
2013-12-16,57.9,43.4,32.7,30.5,25.9,21.0,75,52,35,30.18,30.03,10,2,232,0.00
2013-12-17,59.2,51.0,37.9,39.9,32.0,25.1,80,51,35,30.15,29.94,10,2,10,0.00
2013-12-18,54.3,42.7,28.0,28.0,19.7,10.1,49,40,36,30.30,29.97,13,3,13,0.00
2013-12-19,58.3,41.6,27.9,37.2,23.6,11.4,72,50,35,30.33,30.24,10,0,10,0.00
2013-12-20,69.4,55.0,40.8,54.5,42.3,31.2,94,65,37,30.27,30.15,8,1,8,0.00
2013-12-21,70.2,63.7,57.2,68.5,58.6,48.5,98,85,52,30.18,30.12,11,2,11,0.00
2013-12-22,74.7,68.8,66.2,66.3,60.2,50.1,92,76,43,30.18,30.12,13,4,13,0.04
2013-12-23,71.1,67.2,59.7,69.4,61.9,51.5,98,84,57,30.15,30.03,14,4,14,0.31
2013-12-24,59.9,44.0,32.5,55.4,30.1,13.4,89,61,37,30.39,30.03,15,4,15,0.28
2013-12-25,44.2,37.0,28.8,20.3,15.3,8.6,45,41,38,30.47,30.36,13,4,13,0.00
2013-12-26,43.7,41.0,38.5,38.1,30.9,19.0,85,68,45,30.36,30.18,11,3,11,0.04
2013-12-27,53.4,41.8,32.2,30.1,21.7,15.5,71,45,36,30.39,30.30,13,3,13,0.00
2013-12-28,62.2,45.9,30.6,33.5,25.7,17.2,77,47,34,30.36,30.12,8,2,8,0.00
2013-12-29,66.4,61.6,51.8,63.1,50.7,27.2,91,69,37,30.12,29.71,24,5,24,0.20
2013-12-30,59.7,49.9,41.7,50.9,36.5,0.0,93,64,8,30.09,29.88,8,1,8,0.00
2013-12-31,54.9,44.6,34.3,38.7,27.3,17.0,78,52,36,30.33,30.06,13,2,13,0.00
2014-1-1,54.0,43.0,31.1,31.8,23.9,0.0,66,48,36,30.39,30.12,6,0,6,0.00
2014-1-2,59.7,49.8,45.3,59.0,46.9,31.8,98,90,57,30.12,29.50,13,1,13,0.79